User: anonymous   Login
Location: Antioch Baptist Church
(32.6696°N, 85.7327°W)
Time: 00:38:37
(UTC+00:00)
Language:

Cosmos 1092 Rocket - Orbit

View from above orbital plane
View from above orbital plane
View from above satellite
View from above satellite

Ground track
Ground track

The orbit data is extracted from the following two-line orbital elements,

1 11327U 79030B   20272.35893863 -.00000036 +00000-0 -52424-4 0  9993
2 11327 082.9473 125.5149 0028903 063.7822 108.7107 13.76954353083940
Epoch (UTC): 28 September 2020 08:36:52
Eccentricity: 0.0028903
inclination: 82.9473°
perigee height: 953 km
apogee height: 996 km
right ascension of ascending node: 125.5149°
argument of perigee: 63.7822°
revolutions per day: 13.76954353
mean anomaly at epoch: 108.7107°
orbit number at epoch: 8394

The dashed part of the orbit path shows where the satellite is in the earth's shadow,  

DLR